• MPC Preparation (Info)

  • MPEC 2010-M24 : 2010 MV

    The following Minor Planet Electronic Circular may be linked-to from your own Web pages, but must not otherwise be redistributed electronically.

    A form allowing access to any MPEC is at the bottom of this page.


    Read MPEC 2010-M23 Read MPEC 2010-M25


    M.P.E.C. 2010-M24                                Issued 2010 June 19, 16:47 UT
    
         The Minor Planet Electronic Circulars contain information on unusual
             minor planets and routine data on comets.  They are published
       on behalf of Commission 20 of the International Astronomical Union by the
              Minor Planet Center, Smithsonian Astrophysical Observatory,
                              Cambridge, MA 02138, U.S.A.
    
                 Prepared using the Tamkin Foundation Computer Network
    
                                  MPC@CFA.HARVARD.EDU
           URL https://www.minorplanetcenter.org/iau/mpc.html  ISSN 1523-6714
    
                                        2010 MV
    
    Observations:
         K10M00V* C2010 06 18.24012 15 58 17.54 -19 37 05.1          20.6 V EM024G96
         K10M00V  C2010 06 18.24671 15 58 20.64 -19 37 26.0          20.6 V EM024G96
         K10M00V  C2010 06 18.25328 15 58 23.66 -19 37 45.9          20.6 V EM024G96
         K10M00V  C2010 06 18.25988 15 58 26.79 -19 38 06.8          20.8 V EM024G96
         K10M00V  C2010 06 18.29594 15 58 43.73 -19 39 58.1          21.2 V EM024G96
         K10M00V  C2010 06 18.29664 15 58 44.04 -19 39 59.8          20.4 V EM024G96
         K10M00V  C2010 06 18.29736 15 58 44.37 -19 40 02.1          21.4 V EM024G96
         K10M00V KC2010 06 18.33132 15 59 00.15 -19 41 45.7          20.4 R EM024H01
         K10M00V KC2010 06 18.33705 15 59 02.90 -19 42 02.7          20.4 R EM024H01
         K10M00V  C2010 06 18.34253 15 59 05.52 -19 42 19.2          20.5 R EM024H01
         K10M00V  C2010 06 18.34836 15 59 08.30 -19 42 36.7          20.7 R EM024H01
         K10M00V 6C2010 06 18.41793 15 59 44.73 -19 46 04.2          21.2 V EM024F65
         K10M00V 6C2010 06 18.41874 15 59 45.11 -19 46 05.8          21.0 V EM024F65
         K10M00V 6C2010 06 18.41956 15 59 45.50 -19 46 08.5          20.9 V EM024F65
         K10M00V 6C2010 06 18.42036 15 59 45.93 -19 46 11.9          21.3 V EM024F65
         K10M00V  C2010 06 19.17108 16 06 03.26 -20 24 16.0          20.4 R EM024H01
         K10M00V  C2010 06 19.17884 16 06 06.84 -20 24 39.4          20.2 R EM024H01
         K10M00V  C2010 06 19.18693 16 06 10.58 -20 25 03.4          20.7 R EM024H01
         K10M00V  C2010 06 19.19505 16 06 14.36 -20 25 28.0          20.3 R EM024H01
         K10M00V tC2010 06 19.27022 16 06 49.35 -20 29 07.0          21.8 V EM024291
         K10M00V tC2010 06 19.28060 16 06 54.26 -20 29 37.5                 EM024291
         K10M00V  C2010 06 19.30017 16 07 03.17 -20 30 33.0          20.5 R EM024926
         K10M00V  C2010 06 19.30498 16 07 05.36 -20 30 47.2          20.8 R EM024926
         K10M00V  C2010 06 19.30978 16 07 07.62 -20 31 01.1          20.7 R EM024926
    
    Observer details:
    291 LPL/Spacewatch II.  Observer T. H. Bressi.  1.8-m f/2.7 reflector + CCD.
    926 Tenagra II Observatory.  Observers P. R. Holvorcem, M. Schwartz.  Measurer
        P. R. Holvorcem.  0.81-m f/7 Ritchey-Chretien + CCD.
    F65 Haleakala-Faulkes Telescope North.  Observer R. Miles.  2.0-m f/10.0
        Ritchey-Chretien + CCD.
    G96 Mt. Lemmon Survey.  Observer A. Boattini.  Measurers J. D. Ahern,
        E. C. Beshore, A. Boattini, G. J. Garradd, A. R. Gibbs, A. D. Grauer,
        R. E. Hill, R. A. Kowalski, S. M. Larson, R. H. McNaught.  1.5-m reflector
        + CCD.
    H01 Magdalena Ridge Observatory, Socorro.  Observer W. H. Ryan.  2.4-m f/8.9
        reflector + CCD.
    
    Orbital elements:
    2010 MV                                                  Earth MOID = 0.0696 AU
    Epoch 2010 July 23.0 TT = JDT 2455400.5                 MPC
    M  18.78502              (2000.0)            P               Q
    n   0.33871657     Peri.  156.25512     -0.45510397     +0.88960587
    a   2.0381920      Node    86.65402     -0.82301309     -0.40374784
    e   0.4697519      Incl.    2.20985     -0.33989679     -0.21351601
    P   2.91           H   24.6           G   0.15           U   8
    Residuals in seconds of arc
    100618 G96  0.2+  0.4+    100618 H01  0.2-  0.1+    100619 H01  0.1-  0.1-
    100618 G96  0.4+  0.0     100618 H01  0.1-  0.1+    100619 H01  0.2-  0.1+
    100618 G96  0.4-  0.5+    100618 H01  0.1-  0.0     100619 H01  0.2+  0.2-
    100618 G96  0.1+  0.0     100618 F65  0.2-  0.4-    100619 291  0.9-  0.3+
    100618 G96  0.4+  0.4-    100618 F65  0.2-  0.4+    100619 291  0.9+  0.1-
    100618 G96  0.1+  0.0     100618 F65  0.1-  0.2+    100619 926  0.1+  0.2+
    100618 G96  0.0   0.1-    100618 F65  0.7+  0.8-    100619 926  0.4-  0.2-
    100618 H01  0.5-  0.1-    100619 H01  0.1+  0.0     100619 926  0.1+  0.4-
    
    Ephemeris:
    2010 MV                  a,e,i = 2.04, 0.47, 2                   q = 1.0807
    Date    TT    R. A. (2000) Decl.     Delta      r     Elong.  Phase     V
    2010 06 13    15 13.49   -14 26.5    0.0922   1.095   148.0    29.5    20.9
    2010 06 23    16 36.33   -23 09.3    0.108    1.118   159.5    18.6    21.0
    2010 07 03    17 40.34   -27 17.2    0.139    1.151   164.3    13.8    21.4
    2010 07 13    18 23.00   -28 37.2    0.183    1.193   163.8    13.7    22.1
    2010 07 23    18 51.61   -28 42.2    0.237    1.242   160.6    15.8    22.8
    2010 08 02    19 12.40   -28 14.3    0.302    1.296   155.8    18.7    23.5
    
    Carl W. Hergenrother         (C) Copyright 2010 MPC           M.P.E.C. 2010-M24
    

    Read MPEC 2010-M23 Read MPEC 2010-M25


    MPEC number:

    Enter an MPEC number in one of the following forms:

    • 1997-B01 (the full form)
    • J97B01 (the packed version of the full form)
    • B01 (the abbreviated form)